Deer Park, WA

9:35 AM PST on January 21, 2018 (GMT -0800)
Deer Park

Weather History for KDEW - October, 2012

Change the Weather History Date:

Thursday, October 11, 2012

  Actual Average Record
Temperature  
Mean Temperature 49 °F 46 °F  
Max Temperature 70 °F 61 °F 70 °F (2012)
Min Temperature 27 °F 31 °F 21 °F (2006)
Degree Days  
Heating Degree Days 16 19  
Month to date heating degree days 201 189  
Since 1 July heating degree days 511 608  
Cooling Degree Days 0 0  
Month to date cooling degree days 0 0  
Year to date cooling degree days 232 187  
Moisture  
Dew Point 33 °F    
Average Humidity 60    
Maximum Humidity 92    
Minimum Humidity 28    
Precipitation  
Precipitation 0.00 in 0.05 in 0.17 in (2003)
Month to date precipitation 0.00 0.44  
Year to date precipitation 17.76 14.88  
Sea Level Pressure  
Sea Level Pressure 29.94 in    
Wind  
Wind Speed 2 mph (East)    
Max Wind Speed 7 mph    
Max Gust Speed 9 mph    
Visibility 10 miles    
Events      
T = Trace of Precipitation, MM = Missing Value Source: NWS Daily Summary

Daily Weather History Graph

Daily Weather History Graph

Search for Another Location

Airport or City:

Trip Planner

Search our weather history database for the weather conditions in past years. The results will help you decide how hot, cold, wet, or windy it might be!

Date:

Astronomy

Oct. 11, 2012 Rise Set
Actual Time 7:03 AM PDT 6:07 PM PDT
Civil Twilight 6:32 AM PDT 6:38 PM PDT
Nautical Twilight 5:56 AM PDT 7:14 PM PDT
Astronomical Twilight 5:20 AM PDT 7:50 PM PDT
Moon 2:30 AM PDT (10/11) 4:00 PM PDT (10/11)
Length of Visible Light 12h 06m
Length of Day
11h 03m
Waning Crescent, 17% of the Moon is Illuminated
Oct 11
Waning Crescent
Oct 15
New
Oct 21
First Quarter
Oct 29
Full
Nov 6
Last Quarter

Hourly Weather History & Observations

Time (PDT) Temp. Windchill Dew Point Humidity Pressure Visibility Wind Dir Wind Speed Gust Speed Precip Events Conditions
12:53 AM 36.0 °F - 30.0 °F 79% 29.93 in 10.0 mi Calm Calm - N/A   Clear
1:53 AM 33.1 °F - 30.0 °F 89% 29.95 in 10.0 mi Calm Calm - N/A   Clear
2:53 AM 35.1 °F - 30.9 °F 85% 29.96 in 10.0 mi Calm Calm - N/A   Clear
3:53 AM 30.9 °F - 28.0 °F 89% 29.97 in 10.0 mi Calm Calm - N/A   Clear
4:53 AM 30.0 °F - 28.9 °F 96% 29.98 in 10.0 mi Calm Calm - N/A   Clear
5:53 AM 28.9 °F 23.9 °F 27.0 °F 92% 30.00 in 10.0 mi North 4.6 mph - N/A   Clear
6:53 AM 30.0 °F - 28.0 °F 92% 30.02 in 9.0 mi Calm Calm - N/A   Clear
7:53 AM 33.1 °F - 30.0 °F 89% 30.03 in 9.0 mi Calm Calm - N/A   Clear
8:53 AM 46.0 °F - 37.0 °F 71% 30.03 in 10.0 mi Calm Calm - N/A   Clear
9:53 AM 55.0 °F - 39.0 °F 55% 30.01 in 10.0 mi NE 5.8 mph - N/A   Clear
10:53 AM 60.1 °F - 39.0 °F 46% 30.01 in 10.0 mi Variable 4.6 mph - N/A   Clear
11:53 AM 62.1 °F - 39.0 °F 43% 29.99 in 10.0 mi Calm Calm - N/A   Clear
12:53 PM 64.9 °F - 39.0 °F 39% 29.97 in 10.0 mi SSE 4.6 mph - N/A   Clear
1:53 PM 68.0 °F - 37.9 °F 33% 29.94 in 10.0 mi South 4.6 mph - N/A   Clear
3:53 PM 70.0 °F - 36.0 °F 29% 29.91 in 10.0 mi South 8.1 mph - N/A   Clear
4:53 PM 68.0 °F - 35.1 °F 30% 29.89 in 10.0 mi Calm Calm - N/A   Clear
6:53 PM 46.9 °F - 33.1 °F 59% 29.88 in 10.0 mi NE 3.5 mph - N/A   Clear
7:53 PM 46.0 °F - 33.1 °F 61% 29.86 in 10.0 mi Calm Calm - N/A   Clear
8:53 PM 42.1 °F - 32.0 °F 67% 29.85 in 10.0 mi Calm Calm - N/A   Clear
9:53 PM 39.0 °F 34.8 °F 30.9 °F 73% 29.84 in 10.0 mi NW 5.8 mph - N/A   Clear
10:53 PM 35.1 °F - 30.0 °F 82% 29.83 in 10.0 mi Calm Calm - N/A   Clear
11:53 PM 35.1 °F - 28.9 °F 78% 29.82 in 10.0 mi Calm Calm - N/A   Clear